BV5AB-33 Weather Reports


time (UTC)temp
C
wind
direction
speed
KPH
gust
KPH
rain 1hr
cm
rain 24hr
cm
rain mn
cm
humidity
%
barometer
mb
20260508071447 31 225 0.0 1.6 0.00 0.38 0.13 52 981.2
20260508070948 31 225 0.0 1.6 0.00 0.38 0.13 53 981.2
20260508064948 31 0 0.0 0.0 0.00 0.38 0.13 53 981.5
20260508064448 31 0 0.0 0.0 0.00 0.38 0.13 54 981.1
20260508063948 31 141 0.0 3.2 0.00 0.38 0.13 53 981.4
20260508063448 32 225 0.0 4.8 0.00 0.38 0.13 53 981.4
20260508062448 32 314 0.0 1.6 0.00 0.38 0.13 53 981.7
20260508061948 32 262 0.0 9.7 0.00 0.38 0.13 54 981.6
20260508060948 32 229 0.0 3.2 0.00 0.38 0.13 55 981.8
20260508060447 32 90 0.0 1.6 0.00 0.38 0.13 56 981.8
20260508055447 32 1 0.0 3.2 0.00 0.38 0.13 55 982.0
20260508054948 32 333 0.0 3.2 0.00 0.38 0.13 55 981.8
20260508054448 32 308 0.0 1.6 0.00 0.38 0.13 54 981.9
20260508053948 32 314 0.0 1.6 0.00 0.38 0.13 53 982.0
20260508053448 32 229 0.0 6.4 0.00 0.38 0.13 52 982.0
20260508052948 32 229 0.0 6.4 0.00 0.38 0.13 53 982.1
20260508052448 32 259 0.0 3.2 0.00 0.38 0.13 52 982.0
20260508051947 32 266 0.0 6.4 0.00 0.38 0.13 53 982.3
20260508051448 32 192 0.0 6.4 0.00 0.38 0.13 52 982.4
20260508050948 32 129 0.0 6.4 0.00 0.38 0.13 53 982.5
20260508050448 32 46 0.0 1.6 0.00 0.38 0.13 54 982.5
20260508045448 31 1 0.0 1.6 0.00 0.38 0.13 54 982.4
20260508044448 31 0 0.0 0.0 0.00 0.38 0.13 54 982.7
20260508043948 31 0 0.0 0.0 0.00 0.38 0.13 54 982.6
20260508043449 31 0 0.0 0.0 0.00 0.38 0.13 53 982.7
20260508042447 31 0 0.0 0.0 0.00 0.38 0.13 54 982.7
20260508041448 31 135 0.0 3.2 0.00 0.38 0.13 53 982.8
20260508040948 31 152 0.0 3.2 0.00 0.38 0.13 52 982.6
20260508040448 32 151 0.0 1.6 0.00 0.38 0.13 52 983.0
20260508035948 32 90 0.0 1.6 0.00 0.38 0.13 51 983.1
20260508035448 32 46 0.0 1.6 0.00 0.38 0.13 51 983.2
20260508034948 32 80 0.0 1.6 0.00 0.38 0.13 51 983.1
20260508034448 32 137 0.0 1.6 0.00 0.38 0.13 51 983.2
20260508033948 32 262 0.0 6.4 0.00 0.38 0.13 52 983.3
20260508033448 32 243 0.0 6.4 0.00 0.38 0.13 52 983.5
20260508032448 31 0 0.0 0.0 0.00 0.38 0.13 52 983.5
20260508031948 31 0 0.0 0.0 0.00 0.38 0.13 52 983.7
20260508030948 31 0 0.0 0.0 0.00 0.38 0.13 52 983.7
20260508030448 31 314 0.0 6.4 0.00 0.38 0.13 51 983.6
20260508025949 31 327 0.0 6.4 0.00 0.38 0.13 51 983.7
20260508025448 31 13 0.0 3.2 0.00 0.38 0.13 51 983.7
20260508024448 31 60 0.0 1.6 0.00 0.38 0.13 52 983.8
20260508023948 31 62 0.0 1.6 0.00 0.38 0.13 53 983.7
20260508023449 31 74 0.0 1.6 0.00 0.38 0.13 54 983.6
20260508022948 31 90 0.0 1.6 0.00 0.38 0.13 54 983.9
20260508022448 31 0 0.0 0.0 0.00 0.38 0.13 54 983.9
20260508021948 30 270 0.0 1.6 0.00 0.38 0.13 55 983.8
20260508021448 30 270 0.0 1.6 0.00 0.38 0.13 56 983.8
20260508020948 30 0 0.0 0.0 0.00 0.38 0.13 56 983.8
20260508020448 30 83 0.0 4.8 0.00 0.38 0.13 56 983.9
20260508015949 30 77 0.0 4.8 0.00 0.38 0.13 55 983.9
20260508015448 30 314 0.0 1.6 0.00 0.38 0.13 58 984.1
20260508014949 30 90 0.0 1.6 0.00 0.38 0.13 58 984.0
20260508013449 29 260 0.0 6.4 0.00 0.38 0.13 59 984.5
20260508012948 29 258 0.0 6.4 0.00 0.38 0.13 60 984.1
20260508012448 29 0 0.0 0.0 0.00 0.38 0.13 60 984.1
20260508011948 29 0 0.0 0.0 0.00 0.38 0.13 60 984.2
20260508011448 29 90 0.0 1.6 0.00 0.38 0.13 60 984.3
20260508010948 28 90 0.0 1.6 0.00 0.38 0.13 60 984.3
20260508010448 28 102 0.0 1.6 0.00 0.38 0.13 60 984.2
20260508005948 28 127 0.0 1.6 0.00 0.38 0.13 60 984.1
20260508005448 28 135 0.0 1.6 0.00 0.38 0.13 62 983.9
20260508004949 28 314 0.0 1.6 0.00 0.38 0.13 62 984.1
20260508004448 27 167 0.0 1.6 0.00 0.38 0.13 63 984.0
20260508003949 27 167 0.0 1.6 0.00 0.38 0.13 63 983.9
20260508003448 27 0 0.0 0.0 0.00 0.38 0.13 63 983.9
20260508002949 27 0 0.0 0.0 0.00 0.38 0.13 63 984.0
20260508001948 27 0 0.0 0.0 0.00 0.38 0.13 64 983.8
20260508001449 27 0 0.0 0.0 0.00 0.38 0.13 68 983.8
20260508000948 27 0 0.0 0.0 0.00 0.38 0.13 68 983.7
20260508000450 27 0 0.0 0.0 0.00 0.38 0.13 68 983.7
20260507235948 27 0 0.0 0.0 0.00 0.38 0.13 69 983.5
20260507235448 27 0 0.0 0.0 0.00 0.38 0.13 69 983.7
20260507234949 26 68 0.0 1.6 0.00 0.38 0.13 69 983.6
20260507234448 26 68 0.0 1.6 0.00 0.38 0.13 70 983.6
20260507233950 26 0 0.0 0.0 0.00 0.38 0.13 70 983.7
20260507233448 26 0 0.0 0.0 0.00 0.38 0.13 71 983.6
20260507232949 26 0 0.0 0.0 0.00 0.38 0.13 72 983.6
20260507232448 26 0 0.0 0.0 0.00 0.38 0.13 72 983.5
20260507231948 26 0 0.0 0.0 0.00 0.38 0.13 72 983.7
20260507231448 25 0 0.0 0.0 0.00 0.38 0.13 71 983.5
20260507230949 25 0 0.0 0.0 0.00 0.38 0.13 72 983.5
20260507230448 25 0 0.0 0.0 0.00 0.38 0.13 72 983.4
20260507225949 25 0 0.0 0.0 0.00 0.38 0.13 72 983.6
20260507224949 25 135 0.0 1.6 0.00 0.38 0.13 72 983.2
20260507224448 25 0 0.0 0.0 0.00 0.38 0.13 72 983.2
20260507223449 25 0 0.0 0.0 0.03 0.38 0.13 73 983.1
20260507222448 25 0 0.0 0.0 0.03 0.38 0.13 73 983.0
20260507221449 25 0 0.0 0.0 0.03 0.38 0.13 74 982.9
20260507215949 25 0 0.0 0.0 0.03 0.38 0.13 74 983.0
20260507215448 25 0 0.0 0.0 0.03 0.38 0.13 74 982.9
20260507214449 24 0 0.0 0.0 0.05 0.38 0.13 75 982.8
20260507213949 24 0 0.0 0.0 0.10 1.93 0.10 75 982.7
20260507213449 24 0 0.0 0.0 0.10 1.93 0.10 75 982.8
20260507212949 24 0 0.0 0.0 0.10 1.93 0.10 75 982.8
20260507212448 24 0 0.0 0.0 0.10 1.93 0.10 75 982.6
20260507211949 24 0 0.0 0.0 0.10 1.93 0.10 74 982.7
20260507211448 24 0 0.0 0.0 0.10 1.93 0.10 75 982.6
20260507210949 24 0 0.0 0.0 0.10 1.93 0.10 75 982.6
20260507210449 24 0 0.0 0.0 0.10 1.93 0.10 74 982.7
20260507205949 25 0 0.0 0.0 0.10 1.93 0.10 74 982.7
20260507205449 25 0 0.0 0.0 0.10 1.93 0.10 74 982.5
20260507204948 25 0 0.0 0.0 0.05 1.88 0.05 74 982.4
20260507204449 25 0 0.0 0.0 0.05 1.88 0.05 74 982.6
20260507203949 25 0 0.0 0.0 0.00 1.83 0.00 74 982.4
20260507203449 25 0 0.0 0.0 0.00 1.83 0.00 75 982.3
20260507202949 25 0 0.0 0.0 0.00 1.83 0.00 75 982.3
20260507202450 25 0 0.0 0.0 0.00 1.83 0.00 74 982.4
20260507201949 25 0 0.0 0.0 0.00 1.83 0.00 74 982.2
20260507201449 25 0 0.0 0.0 0.00 1.83 0.00 74 982.2
20260507200949 25 0 0.0 0.0 0.00 1.83 0.00 74 982.0
20260507200449 25 0 0.0 0.0 0.00 1.83 0.00 74 982.2
20260507195449 25 0 0.0 0.0 0.00 1.83 0.00 74 982.2
20260507194948 25 0 0.0 0.0 0.00 1.83 0.00 74 982.3
20260507194449 25 0 0.0 0.0 0.00 1.83 0.00 74 982.1
20260507193449 25 0 0.0 0.0 0.00 1.83 0.00 74 982.0
20260507192950 25 0 0.0 0.0 0.00 1.83 0.00 74 981.8
20260507192448 25 0 0.0 0.0 0.00 1.83 0.00 73 982.0
20260507191949 25 0 0.0 0.0 0.00 1.83 0.00 74 981.9
20260507191448 25 0 0.0 0.0 0.00 1.83 0.00 74 981.9
20260507190449 25 0 0.0 0.0 0.00 1.83 0.00 74 981.8
20260507185949 25 0 0.0 0.0 0.00 1.83 0.00 74 981.9
20260507185449 25 0 0.0 0.0 0.00 1.83 0.00 74 981.8
20260507184949 25 0 0.0 0.0 0.00 1.83 0.00 74 981.6
20260507184449 25 0 0.0 0.0 0.00 1.83 0.00 73 981.8
20260507183948 25 0 0.0 0.0 0.00 1.83 0.00 73 981.7
20260507183449 25 0 0.0 0.0 0.00 1.83 0.00 73 981.7
20260507182949 25 0 0.0 0.0 0.00 1.83 0.00 73 981.9
20260507182449 25 0 0.0 0.0 0.00 1.83 0.00 73 981.9
20260507181449 25 0 0.0 0.0 0.00 1.83 0.00 73 981.6
20260507180949 25 0 0.0 0.0 0.00 1.83 0.00 73 981.7
20260507180449 25 0 0.0 0.0 0.00 1.83 0.00 73 981.7
20260507175449 25 0 0.0 0.0 0.00 1.83 0.00 73 981.9
20260507174449 25 0 0.0 0.0 0.00 1.83 0.00 73 981.9
20260507173950 25 0 0.0 0.0 0.00 1.83 0.00 73 981.9
20260507173449 25 0 0.0 0.0 0.00 1.83 0.00 72 981.9
20260507172949 25 0 0.0 0.0 0.00 1.83 0.00 72 981.8
20260507172450 25 0 0.0 0.0 0.00 1.83 0.00 72 982.0
20260507171949 25 0 0.0 0.0 0.00 1.83 0.00 72 982.1
20260507171449 25 0 0.0 0.0 0.00 1.83 0.00 72 982.0
20260507170948 25 0 0.0 0.0 0.00 1.83 0.00 72 982.1
20260507170449 25 0 0.0 0.0 0.00 1.83 0.00 72 982.0
20260507165949 25 0 0.0 0.0 0.00 1.83 0.00 73 982.2
20260507165449 25 0 0.0 0.0 0.00 1.83 0.00 72 982.1
20260507164949 25 0 0.0 0.0 0.00 1.83 0.00 73 982.1
20260507164449 25 0 0.0 0.0 0.00 1.83 0.00 73 982.2
20260507163949 25 0 0.0 0.0 0.00 1.83 0.00 73 982.3
20260507162949 25 0 0.0 0.0 0.00 1.83 0.00 73 982.2
20260507162449 25 0 0.0 0.0 0.00 1.83 0.00 73 982.2
20260507161950 25 0 0.0 0.0 0.00 1.83 0.00 73 982.2
20260507160949 25 0 0.0 0.0 0.00 1.83 0.00 73 982.2
20260507160449 25 0 0.0 0.0 0.00 1.83 0.00 73 982.2
20260507155950 25 0 0.0 0.0 0.00 1.83 0.00 73 982.4
20260507155449 25 0 0.0 0.0 0.00 1.83 0.84 73 982.5
20260507154950 25 0 0.0 0.0 0.00 1.83 0.84 73 982.6
20260507154450 25 0 0.0 0.0 0.00 1.83 0.84 72 982.6
20260507153949 25 0 0.0 0.0 0.00 1.83 0.84 72 982.5
20260507153450 25 0 0.0 0.0 0.00 1.83 0.84 72 982.8
20260507152950 25 0 0.0 0.0 0.00 1.83 0.84 72 982.6
20260507152449 25 0 0.0 0.0 0.00 1.83 0.84 72 982.7
20260507151449 25 0 0.0 0.0 0.00 1.83 0.84 72 982.7
20260507150949 25 0 0.0 0.0 0.00 1.83 0.84 73 982.7
20260507150449 25 0 0.0 0.0 0.00 1.83 0.84 73 982.8
20260507145950 25 0 0.0 0.0 0.00 1.83 0.84 72 982.8
20260507145449 25 0 0.0 0.0 0.00 1.83 0.84 72 982.7
20260507144450 26 0 0.0 0.0 0.00 1.83 0.84 72 982.7
20260507143949 26 0 0.0 0.0 0.00 1.83 0.84 72 982.9
20260507143449 26 0 0.0 0.0 0.00 1.83 0.84 72 983.0
20260507142950 26 0 0.0 0.0 0.00 1.83 0.84 72 982.8
20260507142449 26 0 0.0 0.0 0.00 1.83 0.84 72 982.7
20260507141950 26 0 0.0 0.0 0.00 1.83 0.84 72 982.9
20260507141449 26 0 0.0 0.0 0.00 1.83 0.84 72 982.7
20260507140950 26 0 0.0 0.0 0.00 1.83 0.84 72 982.7
20260507140449 26 0 0.0 0.0 0.00 1.83 0.84 72 982.7
20260507135949 26 0 0.0 0.0 0.00 1.83 0.84 72 982.6
20260507135449 26 0 0.0 0.0 0.13 1.83 0.84 72 982.7
20260507134949 26 0 0.0 0.0 0.13 1.83 0.84 72 982.9
20260507133449 26 0 0.0 0.0 0.13 1.83 0.84 71 982.4
20260507132949 26 0 0.0 0.0 0.13 1.83 0.84 71 982.6
20260507132449 26 0 0.0 0.0 0.13 1.83 0.84 71 982.5
20260507131449 26 0 0.0 0.0 0.13 1.83 0.84 71 982.7
20260507130949 26 0 0.0 0.0 0.13 1.83 0.84 71 982.5
20260507130450 26 0 0.0 0.0 0.13 1.83 0.84 71 982.4
20260507125949 26 0 0.0 0.0 0.13 1.83 0.84 70 982.4
20260507125450 26 0 0.0 0.0 0.00 1.70 0.71 71 982.5
20260507124950 26 0 0.0 0.0 0.00 1.70 0.71 71 982.2
20260507124449 26 0 0.0 0.0 0.00 1.70 0.71 71 982.3
20260507123949 26 0 0.0 0.0 0.00 1.70 0.71 70 982.5
20260507123449 26 0 0.0 0.0 0.00 1.70 0.71 70 982.3
20260507122950 26 0 0.0 0.0 0.00 1.70 0.71 70 982.5
20260507121950 26 0 0.0 0.0 0.00 1.70 0.71 70 982.2
20260507121450 27 0 0.0 0.0 0.00 1.70 0.71 70 982.4
20260507120949 27 0 0.0 0.0 0.00 1.70 0.71 70 982.3
20260507120450 27 0 0.0 0.0 0.00 1.70 0.71 70 982.4
20260507115950 27 0 0.0 0.0 0.00 1.70 0.71 70 982.2
20260507115450 27 0 0.0 0.0 0.00 1.70 0.71 70 982.2
20260507114949 27 0 0.0 0.0 0.00 1.70 0.71 70 982.2
20260507114450 27 0 0.0 0.0 0.00 1.70 0.71 70 982.2
20260507113949 27 0 0.0 0.0 0.00 1.70 0.71 70 982.1
20260507112450 27 0 0.0 0.0 0.00 1.70 0.71 69 982.0
20260507111950 27 0 0.0 0.0 0.00 1.70 0.71 69 981.9
20260507111450 27 0 0.0 0.0 0.00 1.70 0.71 64 981.9
20260507110953 27 0 0.0 0.0 0.00 1.70 0.71 65 981.8
20260507110450 27 0 0.0 0.0 0.00 1.70 0.71 65 981.8
20260507105959 27 0 0.0 0.0 0.00 2.77 0.71 65 981.7
20260507103950 27 0 0.0 0.0 0.00 3.33 0.71 64 981.6
20260507103450 27 0 0.0 0.0 0.00 3.33 0.71 64 981.5
20260507102949 27 0 0.0 0.0 0.00 3.33 0.71 63 981.6
20260507102450 27 0 0.0 0.0 0.15 3.33 0.71 63 981.4
20260507101950 27 0 0.0 0.0 0.15 3.33 0.71 62 981.5
20260507101449 28 0 0.0 0.0 0.15 3.33 0.71 62 981.5
20260507100950 28 0 0.0 0.0 0.15 3.33 0.71 62 981.5
20260507095950 28 0 0.0 0.0 0.15 3.33 0.71 62 981.2
20260507094950 28 0 0.0 0.0 0.15 3.33 0.71 61 981.2
20260507094450 28 270 0.0 1.6 0.15 3.33 0.71 61 981.0
20260507093949 28 267 0.0 1.6 0.15 3.33 0.71 61 981.0
20260507093450 28 255 0.0 1.6 0.15 3.33 0.71 61 981.2
20260507092950 28 225 0.0 1.6 0.15 3.33 0.71 61 981.2
20260507092450 28 0 0.0 0.0 0.00 3.17 0.56 60 981.1
20260507091950 28 0 0.0 0.0 0.00 3.17 0.56 60 981.2
20260507091449 29 173 0.0 1.6 0.00 3.17 0.56 60 981.2
20260507090950 29 173 0.0 1.6 0.00 3.17 0.56 60 981.1
20260507090450 29 0 0.0 0.0 0.00 3.17 0.56 59 981.0
20260507085950 29 0 0.0 0.0 0.00 3.17 0.56 58 981.3
20260507085450 29 0 0.0 0.0 0.00 3.17 0.56 58 980.9
20260507084949 30 0 0.0 0.0 0.00 3.17 0.56 58 980.9
20260507084450 30 0 0.0 0.0 0.00 3.17 0.56 57 980.9
20260507083450 30 314 0.0 1.6 0.00 3.17 0.56 57 980.7
20260507082450 30 314 0.0 3.2 0.00 3.17 0.56 58 980.8
20260507081450 30 212 0.0 3.2 0.00 3.17 0.56 57 980.7
20260507080950 30 46 0.0 1.6 0.00 3.17 0.56 56 980.6
20260507080450 30 100 0.0 4.8 0.00 3.17 0.56 55 980.7
20260507075950 30 30 0.0 4.8 0.00 3.17 0.56 55 980.7
20260507075450 30 336 0.0 4.8 0.00 3.17 0.56 55 980.8
20260507074950 30 225 0.0 1.6 0.00 3.17 0.56 55 980.6
20260507074450 31 225 0.0 1.6 0.00 3.17 0.56 55 980.7
20260507073451 31 1 0.0 1.6 0.00 3.17 0.56 55 980.7
20260507072950 31 67 0.0 3.2 0.00 3.17 0.56 55 980.4
20260507072451 31 83 0.0 3.2 0.00 3.17 0.56 55 980.6
20260507071950 31 242 0.0 3.2 0.00 3.17 0.56 55 980.7